Location: Mont Hereford
(45.0826°N, 71.6017°W)
Time: 15:52:29
(UTC-05:00)

N. Korean satellite - Visible Passes

Search period start: 20 January 2018 00:00
Search period end: 30 January 2018 00:00
Orbit: 459 x 515 km, 97.2° (Epoch: 19 January)

Date Brightness Start Highest point End Pass type
(mag) Time Alt. Az. Time Alt. Az. Time Alt. Az.
20 Jan 6.5 17:25:26 10° SSE 17:28:58 61° ENE 17:32:29 10° N visible
21 Jan 7.1 06:24:00 10° NNE 06:27:25 61° E 06:30:50 10° S visible
21 Jan 9.6 18:36:29 10° SW 18:38:57 18° W 18:41:25 10° NW visible
22 Jan 8.7 06:00:36 10° NNE 06:03:41 29° E 06:06:45 10° SSE visible
22 Jan 8.5 18:11:55 10° SSW 18:15:10 32° W 18:18:24 10° NNW visible
23 Jan 9.8 05:37:41 10° NE 05:39:51 16° E 05:42:02 10° SE visible
23 Jan 6.9 17:47:53 10° S 17:51:26 66° W 17:54:57 10° NNW visible
24 Jan 6.5 17:24:17 10° SSE 17:27:47 59° ENE 17:31:15 10° N visible
25 Jan 7.2 06:22:47 10° NNE 06:26:13 59° E 06:29:38 10° S visible
25 Jan 9.6 18:35:18 10° SW 18:37:46 18° W 18:40:13 10° NW visible
26 Jan 8.8 05:59:24 10° NE 06:02:28 29° E 06:05:32 10° SSE visible
26 Jan 8.4 18:10:44 10° SSW 18:13:57 33° W 18:17:10 10° NNW visible
27 Jan 9.8 05:36:29 10° NE 05:38:38 15° E 05:40:47 10° SE visible
27 Jan 6.9 17:46:43 10° S 17:50:13 68° W 17:53:43 10° NNW visible
28 Jan 6.5 17:23:06 10° SSE 17:26:33 57° ENE 17:29:59 10° N visible
29 Jan 7.2 06:21:32 10° NNE 06:24:58 58° E 06:28:25 10° S visible
29 Jan 9.6 18:34:03 10° SW 18:36:31 18° W 18:38:58 10° NW visible
